sat.trackr.live / text

‹ back to catalog

STARLINK-5489

NORAD 56136 · 2023-046AW

PAYLOAD ACTIVE UNKNOWN

§ Identity

Operator
Country
US
Launch date
2023-03-29
Launch site
AFETR
Launch vehicle
Mass (kg)
RCS (m²)

Purposes: comms

External: N2YO · Heavens-Above · Gunter

§ Orbital elements

Epoch: 2026-09-20T08:28:24.548160Z

Period
94.27 min
Inclination
43.0036°
Eccentricity
0.0001597
Mean motion
15.27580619 rev/d
Perigee alt
482.0 km
Apogee alt
484.1 km
Semi-major
6,861.2 km
B*
3.8862e-5
RAAN
127.4394°
Arg perigee
273.2691°
Mean anomaly
86.7978°
Rev number
19,197

§ Raw data

STARLINK-54891 56136U 23046AW  26263.35306190  .00000807  00000+0  38862-4 0  99972 56136  43.0036 127.4394 0001597 273.2691  86.7978 15.27580619191977

JSON: /api/v1/satellites/56136 · /tle

For live sub-satellite position, see the globe view (requires WebGL).

§ Visibility from observer

Set your observer location to see the next 7 days of passes ≥ 10°. The values pass through the URL so the page stays shareable.

No JS? Fill the form by hand. The geolocation button needs JavaScript.